Wetterdaten: aktuell Montag, 17.02.2020 05:01
Datum Zeit Temp. I. Temp. 2m Temp. Gh Feuchte I. Feuchte 2m Feuchte Gh Luftdruck Regen Wind Richtung Richtung ET Taupunkt Windchill Windben Empfang
17.02.2020 05:01 18,4 C 1,2 C 8,3 C 37 % 93 % 81 % 1020,7 hPa 0,0 l/m 1,6 km/h (1 Bft) S 180 0,000 mm 0,2 C 1,2 C 3,2 km/h (1 Bft) 95,65 %
17.02.2020 05:00 18,4 C 1,1 C 8,3 C 37 % 93 % 81 % 1020,7 hPa 0,0 l/m 1,6 km/h (1 Bft) S 180 0,000 mm 0,1 C 1,1 C 3,2 km/h (1 Bft) 95,65 %
17.02.2020 04:59 18,4 C 1,1 C 8,3 C 37 % 93 % 81 % 1020,5 hPa 0,0 l/m 0,0 km/h (0 Bft) N 0 0,000 mm 0,1 C 1,1 C 0,0 km/h (0 Bft) 100,00 %
17.02.2020 04:58 18,4 C 1,1 C 8,3 C 37 % 93 % 81 % 1020,5 hPa 0,0 l/m 0,0 km/h (0 Bft) S 180 0,000 mm 0,1 C 1,1 C 1,6 km/h (1 Bft) 100,00 %
17.02.2020 04:57 18,4 C 1,1 C 8,3 C 37 % 93 % 81 % 1020,4 hPa 0,0 l/m 0,0 km/h (0 Bft) N 0 0,000 mm 0,1 C 1,1 C 0,0 km/h (0 Bft) 100,00 %
17.02.2020 04:56 18,4 C 1,1 C 8,3 C 37 % 93 % 81 % 1020,5 hPa 0,0 l/m 0,0 km/h (0 Bft) N 0 0,000 mm 0,1 C 1,1 C 0,0 km/h (0 Bft) 100,00 %
17.02.2020 04:55 18,4 C 1,1 C 8,3 C 37 % 93 % 81 % 1020,5 hPa 0,0 l/m 0,0 km/h (0 Bft) S 180 0,000 mm 0,1 C 1,1 C 1,6 km/h (1 Bft) 86,96 %
17.02.2020 04:54 18,4 C 1,0 C 8,3 C 37 % 93 % 81 % 1020,5 hPa 0,0 l/m 1,6 km/h (1 Bft) S 180 0,000 mm -0,0 C 1,0 C 1,6 km/h (1 Bft) 95,65 %
17.02.2020 04:53 18,4 C 1,0 C 8,3 C 37 % 93 % 80 % 1020,5 hPa 0,0 l/m 1,6 km/h (1 Bft) S 180 0,000 mm -0,0 C 1,0 C 3,2 km/h (1 Bft) 100,00 %
17.02.2020 04:52 18,4 C 1,0 C 8,3 C 37 % 93 % 80 % 1020,5 hPa 0,0 l/m 1,6 km/h (1 Bft) S 180 0,000 mm -0,0 C 1,0 C 3,2 km/h (1 Bft) 100,00 %
17.02.2020 04:51 18,4 C 0,9 C 8,3 C 37 % 93 % 80 % 1020,6 hPa 0,0 l/m 1,6 km/h (1 Bft) S 180 0,000 mm -0,1 C 0,9 C 1,6 km/h (1 Bft) 100,00 %
17.02.2020 04:50 18,4 C 0,9 C 8,3 C 37 % 93 % 80 % 1020,5 hPa 0,0 l/m 1,6 km/h (1 Bft) S 180 0,000 mm -0,1 C 0,9 C 3,2 km/h (1 Bft) 100,00 %
17.02.2020 04:49 18,4 C 0,9 C 8,3 C 37 % 93 % 80 % 1020,6 hPa 0,0 l/m 1,6 km/h (1 Bft) S 180 0,000 mm -0,1 C 0,9 C 3,2 km/h (1 Bft) 100,00 %
17.02.2020 04:48 18,4 C 0,9 C 8,3 C 37 % 93 % 80 % 1020,5 hPa 0,0 l/m 3,2 km/h (1 Bft) S 180 0,000 mm -0,1 C 0,9 C 3,2 km/h (1 Bft) 95,65 %
17.02.2020 04:47 18,4 C 0,9 C 8,3 C 37 % 93 % 80 % 1020,5 hPa 0,0 l/m 3,2 km/h (1 Bft) S 180 0,000 mm -0,1 C 0,9 C 6,4 km/h (2 Bft) 95,65 %
17.02.2020 04:46 18,4 C 0,8 C 8,3 C 37 % 93 % 80 % 1020,6 hPa 0,0 l/m 3,2 km/h (1 Bft) S 180 0,000 mm -0,2 C 0,8 C 6,4 km/h (2 Bft) 95,65 %
17.02.2020 04:45 18,4 C 0,9 C 8,3 C 37 % 93 % 80 % 1020,6 hPa 0,0 l/m 3,2 km/h (1 Bft) S 180 0,000 mm -0,1 C 0,9 C 6,4 km/h (2 Bft) 100,00 %
17.02.2020 04:44 18,4 C 0,8 C 8,3 C 37 % 93 % 80 % 1020,8 hPa 0,0 l/m 1,6 km/h (1 Bft) S 180 0,000 mm -0,2 C 0,8 C 6,4 km/h (2 Bft) 95,65 %
17.02.2020 04:43 18,4 C 0,8 C 8,3 C 37 % 93 % 80 % 1020,9 hPa 0,0 l/m 3,2 km/h (1 Bft) S 180 0,000 mm -0,2 C 0,8 C 6,4 km/h (2 Bft) 100,00 %
17.02.2020 04:42 18,4 C 0,8 C 8,3 C 37 % 93 % 79 % 1020,7 hPa 0,0 l/m 1,6 km/h (1 Bft) S 180 0,000 mm -0,2 C 0,8 C 3,2 km/h (1 Bft) 100,00 %
17.02.2020 04:41 18,4 C 0,8 C 8,3 C 37 % 93 % 80 % 1020,7 hPa 0,0 l/m 0,0 km/h (0 Bft) S 180 0,000 mm -0,2 C 0,8 C 1,6 km/h (1 Bft) 100,00 %
17.02.2020 04:40 18,4 C 0,8 C 8,3 C 37 % 93 % 79 % 1020,7 hPa 0,0 l/m 1,6 km/h (1 Bft) S 180 0,000 mm -0,2 C 0,8 C 1,6 km/h (1 Bft) 95,65 %
17.02.2020 04:39 18,3 C 0,8 C 8,3 C 37 % 93 % 79 % 1020,8 hPa 0,0 l/m 0,0 km/h (0 Bft) S 180 0,000 mm -0,2 C 0,8 C 1,6 km/h (1 Bft) 100,00 %
17.02.2020 04:38 18,4 C 0,8 C 8,3 C 37 % 93 % 79 % 1020,8 hPa 0,0 l/m 1,6 km/h (1 Bft) S 180 0,000 mm -0,2 C 0,8 C 3,2 km/h (1 Bft) 95,65 %
17.02.2020 04:37 18,4 C 0,7 C 8,3 C 37 % 93 % 79 % 1020,6 hPa 0,0 l/m 1,6 km/h (1 Bft) S-SO 157 0,000 mm -0,3 C 0,7 C 4,8 km/h (1 Bft) 100,00 %
17.02.2020 04:36 18,4 C 0,7 C 8,3 C 37 % 93 % 79 % 1020,6 hPa 0,0 l/m 1,6 km/h (1 Bft) S-SO 157 0,000 mm -0,3 C 0,7 C 4,8 km/h (1 Bft) 100,00 %
17.02.2020 04:35 18,4 C 0,7 C 8,3 C 37 % 93 % 79 % 1020,6 hPa 0,0 l/m 3,2 km/h (1 Bft) S-SO 157 0,000 mm -0,3 C 0,7 C 6,4 km/h (2 Bft) 100,00 %
17.02.2020 04:34 18,3 C 0,7 C 8,3 C 37 % 93 % 78 % 1020,7 hPa 0,0 l/m 4,8 km/h (1 Bft) S-SW 202 0,000 mm -0,3 C -0,7 C 8,0 km/h (2 Bft) 100,00 %
17.02.2020 04:33 18,3 C 0,6 C 8,3 C 37 % 93 % 78 % 1020,8 hPa 0,0 l/m 0,0 km/h (0 Bft) N 0 0,000 mm -0,4 C 0,6 C 0,0 km/h (0 Bft) 95,65 %
17.02.2020 04:32 18,3 C 0,6 C 8,3 C 37 % 92 % 78 % 1020,9 hPa 0,0 l/m 0,0 km/h (0 Bft) N 0 0,000 mm -0,5 C 0,6 C 0,0 km/h (0 Bft) 100,00 %
17.02.2020 04:31 18,3 C 0,6 C 8,3 C 37 % 92 % 78 % 1020,7 hPa 0,0 l/m 1,6 km/h (1 Bft) S-SW 202 0,000 mm -0,5 C 0,6 C 3,2 km/h (1 Bft) 100,00 %
17.02.2020 04:30 18,3 C 0,6 C 8,3 C 37 % 92 % 78 % 1020,7 hPa 0,0 l/m 1,6 km/h (1 Bft) S-SW 202 0,000 mm -0,5 C 0,6 C 3,2 km/h (1 Bft) 100,00 %
17.02.2020 04:29 18,3 C 0,6 C 8,3 C 37 % 92 % 78 % 1020,8 hPa 0,0 l/m 0,0 km/h (0 Bft) N 0 0,000 mm -0,5 C 0,6 C 0,0 km/h (0 Bft) 95,65 %
17.02.2020 04:28 18,3 C 0,6 C 8,3 C 37 % 92 % 78 % 1020,9 hPa 0,0 l/m 0,0 km/h (0 Bft) N 0 0,000 mm -0,5 C 0,6 C 0,0 km/h (0 Bft) 100,00 %
17.02.2020 04:27 18,3 C 0,6 C 8,3 C 37 % 92 % 78 % 1020,8 hPa 0,0 l/m 0,0 km/h (0 Bft) N 0 0,000 mm -0,5 C 0,6 C 0,0 km/h (0 Bft) 100,00 %
17.02.2020 04:26 18,3 C 0,6 C 8,3 C 37 % 92 % 78 % 1020,8 hPa 0,0 l/m 0,0 km/h (0 Bft) N 0 0,000 mm -0,5 C 0,6 C 0,0 km/h (0 Bft) 100,00 %
17.02.2020 04:25 18,3 C 0,6 C 8,3 C 37 % 92 % 78 % 1020,7 hPa 0,0 l/m 0,0 km/h (0 Bft) N 0 0,000 mm -0,5 C 0,6 C 0,0 km/h (0 Bft) 95,65 %
17.02.2020 04:24 18,3 C 0,6 C 8,3 C 37 % 92 % 78 % 1020,8 hPa 0,0 l/m 0,0 km/h (0 Bft) N 0 0,000 mm -0,5 C 0,6 C 0,0 km/h (0 Bft) 95,65 %
17.02.2020 04:23 18,3 C 0,6 C 8,3 C 37 % 92 % 78 % 1020,8 hPa 0,0 l/m 0,0 km/h (0 Bft) S-SW 202 0,000 mm -0,5 C 0,6 C 1,6 km/h (1 Bft) 95,65 %
17.02.2020 04:22 18,3 C 0,6 C 8,3 C 37 % 92 % 78 % 1020,7 hPa 0,0 l/m 0,0 km/h (0 Bft) N 0 0,000 mm -0,5 C 0,6 C 0,0 km/h (0 Bft) 100,00 %
17.02.2020 04:21 18,3 C 0,6 C 8,3 C 37 % 92 % 78 % 1020,8 hPa 0,0 l/m 0,0 km/h (0 Bft) N 0 0,000 mm -0,5 C 0,6 C 0,0 km/h (0 Bft) 100,00 %
17.02.2020 04:20 18,3 C 0,6 C 8,3 C 37 % 92 % 78 % 1020,7 hPa 0,0 l/m 0,0 km/h (0 Bft) S-SW 202 0,000 mm -0,5 C 0,6 C 1,6 km/h (1 Bft) 100,00 %
17.02.2020 04:19 18,3 C 0,6 C 8,3 C 37 % 92 % 78 % 1020,8 hPa 0,0 l/m 1,6 km/h (1 Bft) S-SW 202 0,000 mm -0,5 C 0,6 C 1,6 km/h (1 Bft) 95,65 %
17.02.2020 04:18 18,3 C 0,5 C 8,3 C 37 % 92 % 78 % 1020,9 hPa 0,0 l/m 1,6 km/h (1 Bft) S-SW 202 0,000 mm -0,6 C 0,5 C 1,6 km/h (1 Bft) 95,65 %
17.02.2020 04:17 18,3 C 0,5 C 8,3 C 37 % 92 % 78 % 1020,8 hPa 0,0 l/m 3,2 km/h (1 Bft) S-SW 202 0,000 mm -0,6 C 0,5 C 4,8 km/h (1 Bft) 100,00 %
17.02.2020 04:16 18,3 C 0,5 C 8,3 C 37 % 92 % 79 % 1020,7 hPa 0,0 l/m 3,2 km/h (1 Bft) S-SW 202 0,000 mm -0,6 C 0,5 C 4,8 km/h (1 Bft) 100,00 %
17.02.2020 04:15 18,3 C 0,5 C 8,3 C 37 % 92 % 79 % 1020,6 hPa 0,0 l/m 0,0 km/h (0 Bft) S-SW 202 0,000 mm -0,6 C 0,5 C 1,6 km/h (1 Bft) 100,00 %
17.02.2020 04:14 18,2 C 0,5 C 8,3 C 37 % 92 % 79 % 1020,6 hPa 0,0 l/m 1,6 km/h (1 Bft) S-SW 202 0,000 mm -0,6 C 0,5 C 1,6 km/h (1 Bft) 95,65 %
17.02.2020 04:13 18,3 C 0,5 C 8,3 C 37 % 92 % 79 % 1020,5 hPa 0,0 l/m 0,0 km/h (0 Bft) S-SW 202 0,000 mm -0,6 C 0,5 C 1,6 km/h (1 Bft) 100,00 %
17.02.2020 04:12 18,3 C 0,6 C 8,3 C 37 % 92 % 79 % 1020,6 hPa 0,0 l/m 0,0 km/h (0 Bft) N 0 0,000 mm -0,5 C 0,6 C 0,0 km/h (0 Bft) 95,65 %
17.02.2020 04:11 18,2 C 0,5 C 8,3 C 37 % 92 % 79 % 1020,6 hPa 0,0 l/m 0,0 km/h (0 Bft) N 0 0,000 mm -0,6 C 0,5 C 0,0 km/h (0 Bft) 95,65 %
17.02.2020 04:10 18,3 C 0,5 C 8,3 C 37 % 92 % 79 % 1020,6 hPa 0,0 l/m 0,0 km/h (0 Bft) N 0 0,000 mm -0,6 C 0,5 C 0,0 km/h (0 Bft) 100,00 %
17.02.2020 04:09 18,2 C 0,6 C 8,3 C 37 % 92 % 80 % 1020,6 hPa 0,0 l/m 0,0 km/h (0 Bft) N 0 0,000 mm -0,5 C 0,6 C 0,0 km/h (0 Bft) 100,00 %
17.02.2020 04:08 18,2 C 0,6 C 8,3 C 37 % 92 % 80 % 1020,6 hPa 0,0 l/m 0,0 km/h (0 Bft) N 0 0,000 mm -0,5 C 0,6 C 0,0 km/h (0 Bft) 100,00 %
17.02.2020 04:07 18,2 C 0,6 C 8,3 C 37 % 92 % 80 % 1020,6 hPa 0,0 l/m 0,0 km/h (0 Bft) N 0 0,000 mm -0,5 C 0,6 C 0,0 km/h (0 Bft) 100,00 %
17.02.2020 04:06 18,2 C 0,6 C 8,3 C 37 % 92 % 80 % 1020,7 hPa 0,0 l/m 0,0 km/h (0 Bft) N 0 0,000 mm -0,5 C 0,6 C 0,0 km/h (0 Bft) 95,65 %
17.02.2020 04:05 18,2 C 0,6 C 8,3 C 37 % 92 % 80 % 1020,7 hPa 0,0 l/m 0,0 km/h (0 Bft) N 0 0,000 mm -0,5 C 0,6 C 0,0 km/h (0 Bft) 100,00 %
17.02.2020 04:04 18,2 C 0,6 C 8,3 C 37 % 92 % 80 % 1020,7 hPa 0,0 l/m 0,0 km/h (0 Bft) N 0 0,000 mm -0,5 C 0,6 C 0,0 km/h (0 Bft) 95,65 %
17.02.2020 04:03 18,2 C 0,6 C 8,3 C 37 % 92 % 80 % 1020,6 hPa 0,0 l/m 0,0 km/h (0 Bft) N 0 0,000 mm -0,5 C 0,6 C 0,0 km/h (0 Bft) 100,00 %
17.02.2020 04:02 18,2 C 0,6 C 8,3 C 37 % 92 % 80 % 1020,6 hPa 0,0 l/m 0,0 km/h (0 Bft) N 0 0,000 mm -0,5 C 0,6 C 0,0 km/h (0 Bft) 100,00 %
17.02.2020 04:01 18,2 C 0,6 C 8,3 C 37 % 92 % 80 % 1020,5 hPa 0,0 l/m 0,0 km/h (0 Bft) N 0 0,000 mm -0,5 C 0,6 C 0,0 km/h (0 Bft) 100,00 %
17.02.2020 04:00 18,2 C 0,6 C 8,3 C 37 % 92 % 80 % 1020,5 hPa 0,0 l/m 0,0 km/h (0 Bft) N 0 0,000 mm -0,5 C 0,6 C 0,0 km/h (0 Bft) 95,65 %
17.02.2020 03:59 18,2 C 0,6 C 8,3 C 37 % 92 % 80 % 1020,5 hPa 0,0 l/m 0,0 km/h (0 Bft) N 0 0,000 mm -0,5 C 0,6 C 0,0 km/h (0 Bft) 91,30 %
17.02.2020 03:58 18,2 C 0,6 C 8,3 C 37 % 92 % 80 % 1020,5 hPa 0,0 l/m 0,0 km/h (0 Bft) N 0 0,000 mm -0,5 C 0,6 C 0,0 km/h (0 Bft) 95,65 %
17.02.2020 03:57 18,2 C 0,6 C 8,3 C 37 % 92 % 80 % 1020,4 hPa 0,0 l/m 0,0 km/h (0 Bft) N 0 0,000 mm -0,5 C 0,6 C 0,0 km/h (0 Bft) 95,65 %
17.02.2020 03:56 18,2 C 0,6 C 8,3 C 37 % 92 % 80 % 1020,4 hPa 0,0 l/m 0,0 km/h (0 Bft) N 0 0,000 mm -0,5 C 0,6 C 0,0 km/h (0 Bft) 95,65 %
17.02.2020 03:55 18,2 C 0,6 C 8,3 C 37 % 92 % 79 % 1020,5 hPa 0,0 l/m 0,0 km/h (0 Bft) N 0 0,000 mm -0,5 C 0,6 C 0,0 km/h (0 Bft) 100,00 %
17.02.2020 03:54 18,2 C 0,6 C 8,3 C 37 % 92 % 79 % 1020,4 hPa 0,0 l/m 0,0 km/h (0 Bft) S-SW 202 0,000 mm -0,5 C 0,6 C 1,6 km/h (1 Bft) 95,65 %
17.02.2020 03:53 18,2 C 0,6 C 8,3 C 37 % 92 % 80 % 1020,4 hPa 0,0 l/m 1,6 km/h (1 Bft) S-SW 202 0,000 mm -0,5 C 0,6 C 1,6 km/h (1 Bft) 95,65 %
17.02.2020 03:52 18,2 C 0,6 C 8,3 C 37 % 91 % 79 % 1020,4 hPa 0,0 l/m 1,6 km/h (1 Bft) S-SW 202 0,000 mm -0,7 C 0,6 C 3,2 km/h (1 Bft) 95,65 %
17.02.2020 03:51 18,2 C 0,6 C 8,3 C 37 % 91 % 79 % 1020,3 hPa 0,0 l/m 1,6 km/h (1 Bft) S-SW 202 0,000 mm -0,7 C 0,6 C 3,2 km/h (1 Bft) 100,00 %
17.02.2020 03:50 18,2 C 0,6 C 8,3 C 37 % 91 % 79 % 1020,3 hPa 0,0 l/m 0,0 km/h (0 Bft) S-SW 202 0,000 mm -0,7 C 0,6 C 1,6 km/h (1 Bft) 91,30 %
17.02.2020 03:49 18,2 C 0,6 C 8,3 C 37 % 91 % 79 % 1020,4 hPa 0,0 l/m 0,0 km/h (0 Bft) N 0 0,000 mm -0,7 C 0,6 C 0,0 km/h (0 Bft) 100,00 %
17.02.2020 03:48 18,1 C 0,6 C 8,3 C 37 % 91 % 79 % 1020,4 hPa 0,0 l/m 0,0 km/h (0 Bft) S-SW 202 0,000 mm -0,7 C 0,6 C 1,6 km/h (1 Bft) 95,65 %
17.02.2020 03:47 18,1 C 0,7 C 8,3 C 37 % 91 % 79 % 1020,1 hPa 0,0 l/m 3,2 km/h (1 Bft) S-SW 202 0,000 mm -0,6 C 0,7 C 4,8 km/h (1 Bft) 95,65 %
17.02.2020 03:46 18,1 C 0,7 C 8,3 C 37 % 91 % 79 % 1020,2 hPa 0,0 l/m 3,2 km/h (1 Bft) S-SW 202 0,000 mm -0,6 C 0,7 C 4,8 km/h (1 Bft) 95,65 %
17.02.2020 03:45 18,1 C 0,7 C 8,3 C 37 % 91 % 79 % 1020,3 hPa 0,0 l/m 3,2 km/h (1 Bft) S-SW 202 0,000 mm -0,6 C 0,7 C 3,2 km/h (1 Bft) 91,30 %
17.02.2020 03:44 18,1 C 0,7 C 8,3 C 37 % 91 % 79 % 1020,1 hPa 0,0 l/m 1,6 km/h (1 Bft) S-SW 202 0,000 mm -0,6 C 0,7 C 3,2 km/h (1 Bft) 95,65 %
17.02.2020 03:43 18,1 C 0,7 C 8,3 C 37 % 91 % 79 % 1020,1 hPa 0,0 l/m 1,6 km/h (1 Bft) S-SW 202 0,000 mm -0,6 C 0,7 C 3,2 km/h (1 Bft) 82,61 %
17.02.2020 03:42 18,1 C 0,7 C 8,3 C 37 % 91 % 78 % 1020,2 hPa 0,0 l/m 1,6 km/h (1 Bft) S-SW 202 0,000 mm -0,6 C 0,7 C 3,2 km/h (1 Bft) 100,00 %
17.02.2020 03:41 18,1 C 0,7 C 8,3 C 37 % 91 % 78 % 1020,1 hPa 0,0 l/m 0,0 km/h (0 Bft) N 0 0,000 mm -0,6 C 0,7 C 0,0 km/h (0 Bft) 91,30 %
17.02.2020 03:40 18,1 C 0,7 C 8,3 C 37 % 91 % 78 % 1020,2 hPa 0,0 l/m 0,0 km/h (0 Bft) S-SW 202 0,000 mm -0,6 C 0,7 C 1,6 km/h (1 Bft) 95,65 %
17.02.2020 03:39 18,1 C 0,7 C 8,3 C 37 % 91 % 78 % 1020,2 hPa 0,0 l/m 1,6 km/h (1 Bft) S-SW 202 0,000 mm -0,6 C 0,7 C 1,6 km/h (1 Bft) 86,96 %
17.02.2020 03:38 18,1 C 0,8 C 8,3 C 37 % 91 % 78 % 1020,2 hPa 0,0 l/m 1,6 km/h (1 Bft) S-SW 202 0,000 mm -0,5 C 0,8 C 1,6 km/h (1 Bft) 91,30 %
17.02.2020 03:37 18,1 C 0,8 C 8,3 C 37 % 91 % 78 % 1020,2 hPa 0,0 l/m 1,6 km/h (1 Bft) S-SW 202 0,000 mm -0,5 C 0,8 C 3,2 km/h (1 Bft) 95,65 %
17.02.2020 03:36 18,1 C 0,8 C 8,3 C 37 % 91 % 78 % 1020,2 hPa 0,0 l/m 0,0 km/h (0 Bft) N 0 0,000 mm -0,5 C 0,8 C 0,0 km/h (0 Bft) 91,30 %
17.02.2020 03:35 18,1 C 0,8 C 8,3 C 37 % 91 % 78 % 1020,3 hPa 0,0 l/m 0,0 km/h (0 Bft) N 0 0,000 mm -0,5 C 0,8 C 0,0 km/h (0 Bft) 95,65 %
17.02.2020 03:34 18,1 C 0,8 C 8,3 C 37 % 91 % 78 % 1020,2 hPa 0,0 l/m 0,0 km/h (0 Bft) N 0 0,000 mm -0,5 C 0,8 C 0,0 km/h (0 Bft) 95,65 %
17.02.2020 03:33 18,0 C 0,8 C 8,3 C 37 % 91 % 78 % 1020,3 hPa 0,0 l/m 0,0 km/h (0 Bft) N 0 0,000 mm -0,5 C 0,8 C 0,0 km/h (0 Bft) 95,65 %
17.02.2020 03:32 18,1 C 0,8 C 8,3 C 37 % 91 % 78 % 1020,3 hPa 0,0 l/m 0,0 km/h (0 Bft) N 0 0,000 mm -0,5 C 0,8 C 0,0 km/h (0 Bft) 95,65 %
17.02.2020 03:31 18,1 C 0,9 C 8,3 C 37 % 91 % 78 % 1020,3 hPa 0,0 l/m 0,0 km/h (0 Bft) N 0 0,000 mm -0,4 C 0,9 C 0,0 km/h (0 Bft) 86,96 %
17.02.2020 03:30 17,9 C 0,9 C 8,3 C 37 % 91 % 78 % 1020,3 hPa 0,0 l/m 0,0 km/h (0 Bft) S-SW 202 0,000 mm -0,4 C 0,9 C 1,6 km/h (1 Bft) 95,65 %
17.02.2020 03:29 18,0 C 0,9 C 8,3 C 37 % 91 % 78 % 1020,2 hPa 0,0 l/m 0,0 km/h (0 Bft) S-SW 202 0,000 mm -0,4 C 0,9 C 1,6 km/h (1 Bft) 91,30 %
17.02.2020 03:28 17,9 C 0,9 C 8,3 C 37 % 91 % 78 % 1020,2 hPa 0,0 l/m 1,6 km/h (1 Bft) S-SW 202 0,000 mm -0,4 C 0,9 C 1,6 km/h (1 Bft) 95,65 %
17.02.2020 03:27 18,0 C 0,9 C 8,3 C 37 % 91 % 78 % 1020,2 hPa 0,0 l/m 0,0 km/h (0 Bft) S-SW 202 0,000 mm -0,4 C 0,9 C 1,6 km/h (1 Bft) 100,00 %
17.02.2020 03:26 17,9 C 1,0 C 8,3 C 37 % 91 % 78 % 1020,2 hPa 0,0 l/m 0,0 km/h (0 Bft) S-SW 202 0,000 mm -0,3 C 1,0 C 1,6 km/h (1 Bft) 95,65 %
17.02.2020 03:25 17,9 C 1,0 C 8,3 C 37 % 91 % 78 % 1020,0 hPa 0,0 l/m 0,0 km/h (0 Bft) S-SW 202 0,000 mm -0,3 C 1,0 C 1,6 km/h (1 Bft) 100,00 %
17.02.2020 03:24 17,9 C 1,0 C 8,3 C 37 % 91 % 78 % 1020,0 hPa 0,0 l/m 1,6 km/h (1 Bft) S-SW 202 0,000 mm -0,3 C 1,0 C 1,6 km/h (1 Bft) 95,65 %
17.02.2020 03:23 17,9 C 1,1 C 8,3 C 37 % 91 % 79 % 1020,0 hPa 0,0 l/m 1,6 km/h (1 Bft) S-SW 202 0,000 mm -0,2 C 1,1 C 1,6 km/h (1 Bft) 100,00 %
17.02.2020 03:22 17,9 C 1,1 C 8,3 C 37 % 91 % 79 % 1020,2 hPa 0,0 l/m 0,0 km/h (0 Bft) S-SW 202 0,000 mm -0,2 C 1,1 C 1,6 km/h (1 Bft) 82,61 %
17.02.2020 03:21 17,9 C 1,1 C 8,3 C 37 % 91 % 79 % 1020,2 hPa 0,0 l/m 0,0 km/h (0 Bft) N 0 0,000 mm -0,2 C 1,1 C 0,0 km/h (0 Bft) 100,00 %
17.02.2020 03:20 17,9 C 1,1 C 8,3 C 37 % 91 % 79 % 1020,2 hPa 0,0 l/m 0,0 km/h (0 Bft) N 0 0,000 mm -0,2 C 1,1 C 0,0 km/h (0 Bft) 95,65 %
17.02.2020 03:19 17,9 C 1,1 C 8,3 C 37 % 91 % 79 % 1020,3 hPa 0,0 l/m 0,0 km/h (0 Bft) S-SW 202 0,000 mm -0,2 C 1,1 C 1,6 km/h (1 Bft) 100,00 %
17.02.2020 03:18 17,9 C 1,1 C 8,3 C 37 % 91 % 79 % 1020,3 hPa 0,0 l/m 0,0 km/h (0 Bft) S-SW 202 0,000 mm -0,2 C 1,1 C 1,6 km/h (1 Bft) 95,65 %
17.02.2020 03:17 17,9 C 1,1 C 8,3 C 37 % 91 % 79 % 1020,3 hPa 0,0 l/m 0,0 km/h (0 Bft) S-SW 202 0,000 mm -0,2 C 1,1 C 1,6 km/h (1 Bft) 100,00 %
17.02.2020 03:16 17,9 C 1,1 C 8,3 C 37 % 91 % 79 % 1020,3 hPa 0,0 l/m 1,6 km/h (1 Bft) S-SW 202 0,000 mm -0,2 C 1,1 C 1,6 km/h (1 Bft) 95,65 %
17.02.2020 03:15 17,8 C 1,2 C 8,3 C 37 % 91 % 79 % 1020,4 hPa 0,0 l/m 1,6 km/h (1 Bft) S-SW 202 0,000 mm -0,1 C 1,2 C 1,6 km/h (1 Bft) 91,30 %
17.02.2020 03:14 17,8 C 1,1 C 8,3 C 37 % 91 % 80 % 1020,2 hPa 0,0 l/m 1,6 km/h (1 Bft) S-SW 202 0,000 mm -0,2 C 1,1 C 1,6 km/h (1 Bft) 95,65 %
17.02.2020 03:13 17,8 C 1,1 C 8,3 C 37 % 91 % 80 % 1020,3 hPa 0,0 l/m 1,6 km/h (1 Bft) S-SW 202 0,000 mm -0,2 C 1,1 C 3,2 km/h (1 Bft) 95,65 %
17.02.2020 03:12 17,8 C 1,1 C 8,3 C 37 % 91 % 80 % 1020,3 hPa 0,0 l/m 1,6 km/h (1 Bft) S-SW 202 0,000 mm -0,2 C 1,1 C 3,2 km/h (1 Bft) 100,00 %
17.02.2020 03:11 17,8 C 1,1 C 8,3 C 37 % 91 % 80 % 1020,3 hPa 0,0 l/m 1,6 km/h (1 Bft) S-SW 202 0,000 mm -0,2 C 1,1 C 3,2 km/h (1 Bft) 95,65 %
17.02.2020 03:10 17,8 C 1,2 C 8,3 C 38 % 91 % 80 % 1020,3 hPa 0,0 l/m 1,6 km/h (1 Bft) S-SW 202 0,000 mm -0,1 C 1,2 C 1,6 km/h (1 Bft) 100,00 %
17.02.2020 03:09 17,8 C 1,2 C 8,3 C 38 % 91 % 80 % 1020,3 hPa 0,0 l/m 1,6 km/h (1 Bft) S-SW 202 0,000 mm -0,1 C 1,2 C 3,2 km/h (1 Bft) 95,65 %
17.02.2020 03:08 17,8 C 1,2 C 8,3 C 38 % 91 % 80 % 1020,3 hPa 0,0 l/m 1,6 km/h (1 Bft) S-SW 202 0,000 mm -0,1 C 1,2 C 3,2 km/h (1 Bft) 95,65 %
17.02.2020 03:07 17,8 C 1,2 C 8,3 C 38 % 91 % 80 % 1020,3 hPa 0,0 l/m 1,6 km/h (1 Bft) S-SW 202 0,000 mm -0,1 C 1,2 C 3,2 km/h (1 Bft) 95,65 %
17.02.2020 03:06 17,8 C 1,2 C 8,3 C 38 % 91 % 80 % 1020,3 hPa 0,0 l/m 1,6 km/h (1 Bft) S-SW 202 0,000 mm -0,1 C 1,2 C 1,6 km/h (1 Bft) 100,00 %
17.02.2020 03:05 17,8 C 1,2 C 8,3 C 38 % 91 % 80 % 1020,2 hPa 0,0 l/m 0,0 km/h (0 Bft) N 0 0,000 mm -0,1 C 1,2 C 0,0 km/h (0 Bft) 95,65 %
17.02.2020 03:04 17,8 C 1,2 C 8,3 C 37 % 90 % 80 % 1020,2 hPa 0,0 l/m 0,0 km/h (0 Bft) N 0 0,000 mm -0,3 C 1,2 C 0,0 km/h (0 Bft) 100,00 %
17.02.2020 03:03 17,8 C 1,2 C 8,3 C 38 % 91 % 79 % 1020,1 hPa 0,0 l/m 0,0 km/h (0 Bft) N 0 0,000 mm -0,1 C 1,2 C 0,0 km/h (0 Bft) 100,00 %
17.02.2020 03:02 17,8 C 1,2 C 8,3 C 38 % 91 % 79 % 1020,1 hPa 0,0 l/m 0,0 km/h (0 Bft) N 0 0,000 mm -0,1 C 1,2 C 0,0 km/h (0 Bft) 100,00 %
17.02.2020 03:01 17,8 C 1,3 C 8,3 C 38 % 90 % 79 % 1020,1 hPa 0,0 l/m 0,0 km/h (0 Bft) N 0 0,000 mm -0,2 C 1,3 C 0,0 km/h (0 Bft) 91,30 %
17.02.2020 03:00 17,8 C 1,3 C 8,3 C 38 % 90 % 79 % 1020,1 hPa 0,0 l/m 0,0 km/h (0 Bft) S-SW 202 0,000 mm -0,2 C 1,3 C 1,6 km/h (1 Bft) 100,00 %
17.02.2020 02:59 17,7 C 1,3 C 8,3 C 38 % 90 % 79 % 1020,2 hPa 0,0 l/m 0,0 km/h (0 Bft) N 0 0,000 mm -0,2 C 1,3 C 0,0 km/h (0 Bft) 100,00 %
17.02.2020 02:58 17,7 C 1,3 C 8,3 C 38 % 90 % 79 % 1020,2 hPa 0,0 l/m 0,0 km/h (0 Bft) N 0 0,000 mm -0,2 C 1,3 C 0,0 km/h (0 Bft) 100,00 %
17.02.2020 02:57 17,7 C 1,3 C 8,3 C 38 % 90 % 79 % 1020,3 hPa 0,0 l/m 0,0 km/h (0 Bft) S-SW 202 0,000 mm -0,2 C 1,3 C 1,6 km/h (1 Bft) 100,00 %
17.02.2020 02:56 17,7 C 1,4 C 8,3 C 38 % 90 % 79 % 1020,1 hPa 0,0 l/m 1,6 km/h (1 Bft) S-SW 202 0,000 mm -0,1 C 1,4 C 1,6 km/h (1 Bft) 100,00 %
17.02.2020 02:55 17,7 C 1,4 C 8,3 C 38 % 90 % 79 % 1020,2 hPa 0,0 l/m 1,6 km/h (1 Bft) S-SW 202 0,000 mm -0,1 C 1,4 C 1,6 km/h (1 Bft) 100,00 %
17.02.2020 02:54 17,7 C 1,4 C 8,3 C 38 % 90 % 79 % 1020,3 hPa 0,0 l/m 0,0 km/h (0 Bft) S-SW 202 0,000 mm -0,1 C 1,4 C 1,6 km/h (1 Bft) 91,30 %
17.02.2020 02:53 17,7 C 1,4 C 8,3 C 38 % 90 % 79 % 1020,3 hPa 0,0 l/m 0,0 km/h (0 Bft) S-SW 202 0,000 mm -0,1 C 1,4 C 1,6 km/h (1 Bft) 95,65 %
17.02.2020 02:52 17,7 C 1,5 C 8,3 C 38 % 90 % 79 % 1020,3 hPa 0,0 l/m 0,0 km/h (0 Bft) S-SW 202 0,000 mm 0,0 C 1,5 C 1,6 km/h (1 Bft) 95,65 %
17.02.2020 02:51 17,7 C 1,5 C 8,3 C 38 % 90 % 79 % 1020,3 hPa 0,0 l/m 0,0 km/h (0 Bft) S-SW 202 0,000 mm 0,0 C 1,5 C 1,6 km/h (1 Bft) 100,00 %
17.02.2020 02:50 17,7 C 1,5 C 8,9 C 38 % 90 % 79 % 1020,3 hPa 0,0 l/m 0,0 km/h (0 Bft) S-SW 202 0,000 mm 0,0 C 1,5 C 1,6 km/h (1 Bft) 100,00 %
17.02.2020 02:49 17,7 C 1,5 C 8,9 C 38 % 90 % 79 % 1020,2 hPa 0,0 l/m 0,0 km/h (0 Bft) S-SW 202 0,000 mm 0,0 C 1,5 C 1,6 km/h (1 Bft) 100,00 %
17.02.2020 02:48 17,7 C 1,6 C 8,9 C 38 % 90 % 78 % 1020,2 hPa 0,0 l/m 1,6 km/h (1 Bft) S-SW 202 0,000 mm 0,1 C 1,6 C 1,6 km/h (1 Bft) 100,00 %
17.02.2020 02:47 17,6 C 1,6 C 8,9 C 38 % 90 % 78 % 1020,2 hPa 0,0 l/m 1,6 km/h (1 Bft) S-SW 202 0,000 mm 0,1 C 1,6 C 3,2 km/h (1 Bft) 91,30 %
17.02.2020 02:46 17,6 C 1,6 C 8,9 C 38 % 90 % 78 % 1020,3 hPa 0,0 l/m 1,6 km/h (1 Bft) S-SW 202 0,000 mm 0,1 C 1,6 C 3,2 km/h (1 Bft) 100,00 %
17.02.2020 02:45 17,6 C 1,7 C 8,9 C 38 % 90 % 78 % 1020,3 hPa 0,0 l/m 0,0 km/h (0 Bft) S-SW 202 0,000 mm 0,2 C 1,7 C 1,6 km/h (1 Bft) 95,65 %
17.02.2020 02:44 17,6 C 1,7 C 8,9 C 38 % 90 % 78 % 1020,3 hPa 0,0 l/m 0,0 km/h (0 Bft) N 0 0,000 mm 0,2 C 1,7 C 0,0 km/h (0 Bft) 100,00 %
17.02.2020 02:43 17,6 C 1,7 C 8,9 C 38 % 90 % 78 % 1020,4 hPa 0,0 l/m 0,0 km/h (0 Bft) N 0 0,000 mm 0,2 C 1,7 C 0,0 km/h (0 Bft) 100,00 %
17.02.2020 02:42 17,6 C 1,7 C 8,9 C 38 % 90 % 78 % 1020,3 hPa 0,0 l/m 0,0 km/h (0 Bft) N 0 0,000 mm 0,2 C 1,7 C 0,0 km/h (0 Bft) 100,00 %
17.02.2020 02:41 17,6 C 1,7 C 8,9 C 38 % 90 % 78 % 1020,3 hPa 0,0 l/m 0,0 km/h (0 Bft) N 0 0,000 mm 0,2 C 1,7 C 0,0 km/h (0 Bft) 100,00 %
17.02.2020 02:40 17,6 C 1,7 C 8,9 C 38 % 90 % 78 % 1020,4 hPa 0,0 l/m 0,0 km/h (0 Bft) N 0 0,000 mm 0,2 C 1,7 C 0,0 km/h (0 Bft) 95,65 %
17.02.2020 02:39 17,6 C 1,8 C 8,9 C 38 % 90 % 78 % 1020,3 hPa 0,0 l/m 0,0 km/h (0 Bft) N 0 0,000 mm 0,3 C 1,8 C 0,0 km/h (0 Bft) 100,00 %
17.02.2020 02:38 17,6 C 1,8 C 8,9 C 38 % 90 % 78 % 1020,5 hPa 0,0 l/m 0,0 km/h (0 Bft) N 0 0,000 mm 0,3 C 1,8 C 0,0 km/h (0 Bft) 100,00 %
17.02.2020 02:37 17,6 C 1,8 C 8,9 C 38 % 90 % 78 % 1020,3 hPa 0,0 l/m 0,0 km/h (0 Bft) N 0 0,000 mm 0,3 C 1,8 C 0,0 km/h (0 Bft) 100,00 %
17.02.2020 02:36 17,5 C 1,8 C 8,9 C 38 % 90 % 78 % 1020,3 hPa 0,0 l/m 0,0 km/h (0 Bft) N 0 0,000 mm 0,3 C 1,8 C 0,0 km/h (0 Bft) 100,00 %
17.02.2020 02:35 17,6 C 1,8 C 8,9 C 38 % 90 % 78 % 1020,2 hPa 0,0 l/m 0,0 km/h (0 Bft) N 0 0,000 mm 0,3 C 1,8 C 0,0 km/h (0 Bft) 100,00 %
17.02.2020 02:34 17,5 C 1,9 C 8,9 C 38 % 90 % 78 % 1020,3 hPa 0,0 l/m 0,0 km/h (0 Bft) N 0 0,000 mm 0,4 C 1,9 C 0,0 km/h (0 Bft) 95,65 %
17.02.2020 02:33 17,5 C 1,9 C 8,9 C 38 % 90 % 78 % 1020,3 hPa 0,0 l/m 0,0 km/h (0 Bft) N 0 0,000 mm 0,4 C 1,9 C 0,0 km/h (0 Bft) 95,65 %
17.02.2020 02:32 17,5 C 1,9 C 8,9 C 38 % 90 % 79 % 1020,2 hPa 0,0 l/m 0,0 km/h (0 Bft) S-SW 202 0,000 mm 0,4 C 1,9 C 1,6 km/h (1 Bft) 95,65 %
17.02.2020 02:31 17,4 C 1,9 C 8,9 C 38 % 90 % 79 % 1020,3 hPa 0,0 l/m 1,6 km/h (1 Bft) S-SW 202 0,000 mm 0,4 C 1,9 C 3,2 km/h (1 Bft) 100,00 %
17.02.2020 02:30 17,5 C 1,9 C 8,9 C 38 % 90 % 79 % 1020,3 hPa 0,0 l/m 1,6 km/h (1 Bft) S-SW 202 0,000 mm 0,4 C 1,9 C 3,2 km/h (1 Bft) 100,00 %
17.02.2020 02:29 17,5 C 2,0 C 8,9 C 38 % 90 % 79 % 1020,3 hPa 0,0 l/m 1,6 km/h (1 Bft) S-SW 202 0,000 mm 0,5 C 2,0 C 3,2 km/h (1 Bft) 95,65 %
17.02.2020 02:28 17,4 C 2,0 C 8,9 C 38 % 90 % 79 % 1020,2 hPa 0,0 l/m 1,6 km/h (1 Bft) S-SW 202 0,000 mm 0,5 C 2,0 C 1,6 km/h (1 Bft) 100,00 %
17.02.2020 02:27 17,4 C 2,0 C 8,9 C 38 % 90 % 79 % 1020,2 hPa 0,0 l/m 1,6 km/h (1 Bft) S-SW 202 0,000 mm 0,5 C 2,0 C 1,6 km/h (1 Bft) 100,00 %
17.02.2020 02:26 17,4 C 2,0 C 8,9 C 38 % 90 % 79 % 1020,4 hPa 0,0 l/m 3,2 km/h (1 Bft) S-SW 202 0,000 mm 0,5 C 2,0 C 3,2 km/h (1 Bft) 91,30 %
17.02.2020 02:25 17,4 C 2,1 C 8,9 C 38 % 90 % 79 % 1020,2 hPa 0,0 l/m 3,2 km/h (1 Bft) S-SW 202 0,000 mm 0,6 C 2,1 C 3,2 km/h (1 Bft) 100,00 %
17.02.2020 02:24 17,4 C 2,1 C 8,9 C 38 % 90 % 80 % 1020,2 hPa 0,0 l/m 1,6 km/h (1 Bft) S-SW 202 0,000 mm 0,6 C 2,1 C 3,2 km/h (1 Bft) 95,65 %
17.02.2020 02:23 17,4 C 2,1 C 8,9 C 38 % 90 % 80 % 1020,1 hPa 0,0 l/m 1,6 km/h (1 Bft) S-SW 202 0,000 mm 0,6 C 2,1 C 3,2 km/h (1 Bft) 100,00 %
17.02.2020 02:22 17,4 C 2,1 C 8,9 C 38 % 90 % 80 % 1020,1 hPa 0,0 l/m 1,6 km/h (1 Bft) S-SW 202 0,000 mm 0,6 C 2,1 C 3,2 km/h (1 Bft) 95,65 %
17.02.2020 02:21 17,4 C 2,1 C 8,9 C 38 % 90 % 80 % 1020,2 hPa 0,0 l/m 1,6 km/h (1 Bft) S-SW 202 0,000 mm 0,6 C 2,1 C 1,6 km/h (1 Bft) 95,65 %
17.02.2020 02:20 17,4 C 2,1 C 8,9 C 38 % 90 % 80 % 1020,3 hPa 0,0 l/m 1,6 km/h (1 Bft) S-SW 202 0,000 mm 0,6 C 2,1 C 1,6 km/h (1 Bft) 100,00 %
17.02.2020 02:19 17,4 C 2,2 C 8,9 C 38 % 90 % 80 % 1020,3 hPa 0,0 l/m 1,6 km/h (1 Bft) S-SW 202 0,000 mm 0,7 C 2,2 C 1,6 km/h (1 Bft) 91,30 %
17.02.2020 02:18 17,4 C 2,1 C 8,9 C 38 % 90 % 80 % 1020,2 hPa 0,0 l/m 1,6 km/h (1 Bft) S-SW 202 0,000 mm 0,6 C 2,1 C 3,2 km/h (1 Bft) 100,00 %
17.02.2020 02:17 17,4 C 2,2 C 8,9 C 38 % 90 % 80 % 1020,3 hPa 0,0 l/m 1,6 km/h (1 Bft) S-SW 202 0,000 mm 0,7 C 2,2 C 3,2 km/h (1 Bft) 91,30 %
17.02.2020 02:16 17,4 C 2,2 C 8,9 C 38 % 90 % 80 % 1020,3 hPa 0,0 l/m 1,6 km/h (1 Bft) S-SW 202 0,000 mm 0,7 C 2,2 C 3,2 km/h (1 Bft) 100,00 %
17.02.2020 02:15 17,4 C 2,2 C 8,9 C 38 % 90 % 80 % 1020,3 hPa 0,0 l/m 1,6 km/h (1 Bft) S-SW 202 0,000 mm 0,7 C 2,2 C 1,6 km/h (1 Bft) 95,65 %
17.02.2020 02:14 17,4 C 2,2 C 8,9 C 38 % 90 % 80 % 1020,3 hPa 0,0 l/m 1,6 km/h (1 Bft) S-SW 202 0,000 mm 0,7 C 2,2 C 1,6 km/h (1 Bft) 100,00 %
17.02.2020 02:13 17,4 C 2,3 C 8,9 C 38 % 90 % 80 % 1020,3 hPa 0,0 l/m 1,6 km/h (1 Bft) S-SW 202 0,000 mm 0,8 C 2,3 C 1,6 km/h (1 Bft) 95,65 %
17.02.2020 02:12 17,4 C 2,2 C 8,9 C 38 % 90 % 80 % 1020,4 hPa 0,0 l/m 1,6 km/h (1 Bft) S-SW 202 0,000 mm 0,7 C 2,2 C 3,2 km/h (1 Bft) 86,96 %
17.02.2020 02:11 17,4 C 2,3 C 8,9 C 38 % 90 % 80 % 1020,5 hPa 0,0 l/m 1,6 km/h (1 Bft) S-SW 202 0,000 mm 0,8 C 2,3 C 3,2 km/h (1 Bft) 100,00 %
17.02.2020 02:10 17,4 C 2,3 C 8,9 C 38 % 90 % 80 % 1020,5 hPa 0,0 l/m 1,6 km/h (1 Bft) S-SW 202 0,000 mm 0,8 C 2,3 C 3,2 km/h (1 Bft) 95,65 %
17.02.2020 02:09 17,4 C 2,3 C 8,9 C 38 % 90 % 79 % 1020,4 hPa 0,0 l/m 3,2 km/h (1 Bft) S-SW 202 0,000 mm 0,8 C 2,3 C 4,8 km/h (1 Bft) 100,00 %
17.02.2020 02:08 17,5 C 2,3 C 8,9 C 38 % 90 % 79 % 1020,4 hPa 0,0 l/m 3,2 km/h (1 Bft) S-SW 202 0,000 mm 0,8 C 2,3 C 3,2 km/h (1 Bft) 95,65 %
17.02.2020 02:07 17,5 C 2,3 C 8,9 C 38 % 90 % 79 % 1020,5 hPa 0,0 l/m 3,2 km/h (1 Bft) S-SW 202 0,000 mm 0,8 C 2,3 C 3,2 km/h (1 Bft) 95,65 %
17.02.2020 02:06 17,5 C 2,3 C 8,9 C 38 % 90 % 79 % 1020,5 hPa 0,0 l/m 1,6 km/h (1 Bft) S-SW 202 0,000 mm 0,8 C 2,3 C 3,2 km/h (1 Bft) 95,65 %
17.02.2020 02:05 17,4 C 2,3 C 8,9 C 38 % 90 % 79 % 1020,5 hPa 0,0 l/m 3,2 km/h (1 Bft) S-SW 202 0,000 mm 0,8 C 2,3 C 3,2 km/h (1 Bft) 91,30 %
17.02.2020 02:04 17,4 C 2,3 C 8,9 C 38 % 90 % 79 % 1020,4 hPa 0,0 l/m 3,2 km/h (1 Bft) S-SW 202 0,000 mm 0,8 C 2,3 C 4,8 km/h (1 Bft) 91,30 %
17.02.2020 02:03 17,5 C 2,3 C 8,9 C 38 % 90 % 79 % 1020,5 hPa 0,0 l/m 1,6 km/h (1 Bft) S-SW 202 0,000 mm 0,8 C 2,3 C 3,2 km/h (1 Bft) 95,65 %
17.02.2020 02:02 17,5 C 2,4 C 8,9 C 38 % 90 % 79 % 1020,4 hPa 0,0 l/m 1,6 km/h (1 Bft) S-SW 202 0,000 mm 0,9 C 2,4 C 3,2 km/h (1 Bft) 100,00 %
17.02.2020 02:01 17,5 C 2,4 C 8,9 C 38 % 89 % 79 % 1020,5 hPa 0,0 l/m 1,6 km/h (1 Bft) S-SW 202 0,000 mm 0,8 C 2,4 C 3,2 km/h (1 Bft) 91,30 %
17.02.2020 02:00 17,5 C 2,4 C 8,9 C 38 % 89 % 78 % 1020,5 hPa 0,0 l/m 1,6 km/h (1 Bft) S-SW 202 0,000 mm 0,8 C 2,4 C 3,2 km/h (1 Bft) 100,00 %
17.02.2020 01:59 17,5 C 2,4 C 8,9 C 38 % 89 % 79 % 1020,6 hPa 0,0 l/m 1,6 km/h (1 Bft) S-SW 202 0,000 mm 0,8 C 2,4 C 3,2 km/h (1 Bft) 100,00 %
17.02.2020 01:58 17,5 C 2,4 C 8,9 C 38 % 89 % 78 % 1020,6 hPa 0,0 l/m 3,2 km/h (1 Bft) S-SW 202 0,000 mm 0,8 C 2,4 C 3,2 km/h (1 Bft) 91,30 %
17.02.2020 01:57 17,5 C 2,4 C 8,9 C 38 % 89 % 78 % 1020,5 hPa 0,0 l/m 1,6 km/h (1 Bft) S-SW 202 0,000 mm 0,8 C 2,4 C 3,2 km/h (1 Bft) 100,00 %
17.02.2020 01:56 17,5 C 2,6 C 8,9 C 38 % 89 % 78 % 1020,5 hPa 0,0 l/m 1,6 km/h (1 Bft) S-SW 202 0,000 mm 1,0 C 2,6 C 3,2 km/h (1 Bft) 100,00 %
17.02.2020 01:55 17,5 C 2,5 C 8,9 C 38 % 89 % 78 % 1020,6 hPa 0,0 l/m 1,6 km/h (1 Bft) S-SW 202 0,000 mm 0,9 C 2,5 C 1,6 km/h (1 Bft) 95,65 %
17.02.2020 01:54 17,5 C 2,6 C 8,9 C 38 % 89 % 78 % 1020,6 hPa 0,0 l/m 1,6 km/h (1 Bft) S-SW 202 0,000 mm 1,0 C 2,6 C 1,6 km/h (1 Bft) 95,65 %
17.02.2020 01:53 17,5 C 2,6 C 8,9 C 38 % 89 % 78 % 1020,4 hPa 0,0 l/m 1,6 km/h (1 Bft) S-SW 202 0,000 mm 1,0 C 2,6 C 3,2 km/h (1 Bft) 100,00 %
17.02.2020 01:52 17,5 C 2,6 C 8,9 C 38 % 90 % 78 % 1020,3 hPa 0,0 l/m 1,6 km/h (1 Bft) S-SW 202 0,000 mm 1,1 C 2,6 C 3,2 km/h (1 Bft) 95,65 %
17.02.2020 01:51 17,5 C 2,7 C 8,9 C 38 % 90 % 78 % 1020,3 hPa 0,0 l/m 1,6 km/h (1 Bft) S-SW 202 0,000 mm 1,2 C 2,7 C 3,2 km/h (1 Bft) 95,65 %
17.02.2020 01:50 17,5 C 2,7 C 8,9 C 38 % 90 % 78 % 1020,4 hPa 0,0 l/m 0,0 km/h (0 Bft) S-SW 202 0,000 mm 1,2 C 2,7 C 1,6 km/h (1 Bft) 100,00 %
17.02.2020 01:49 17,5 C 2,7 C 8,9 C 38 % 90 % 78 % 1020,3 hPa 0,0 l/m 1,6 km/h (1 Bft) S-SW 202 0,000 mm 1,2 C 2,7 C 1,6 km/h (1 Bft) 95,65 %
17.02.2020 01:48 17,5 C 2,7 C 8,9 C 38 % 90 % 78 % 1020,3 hPa 0,0 l/m 1,6 km/h (1 Bft) S-SW 202 0,000 mm 1,2 C 2,7 C 3,2 km/h (1 Bft) 91,30 %
17.02.2020 01:47 17,5 C 2,7 C 8,9 C 38 % 90 % 78 % 1020,3 hPa 0,0 l/m 1,6 km/h (1 Bft) S-SW 202 0,000 mm 1,2 C 2,7 C 3,2 km/h (1 Bft) 100,00 %
17.02.2020 01:46 17,5 C 2,7 C 8,9 C 38 % 90 % 78 % 1020,3 hPa 0,0 l/m 3,2 km/h (1 Bft) S-SW 202 0,000 mm 1,2 C 2,7 C 3,2 km/h (1 Bft) 100,00 %
17.02.2020 01:45 17,5 C 2,7 C 8,9 C 38 % 90 % 78 % 1020,3 hPa 0,0 l/m 3,2 km/h (1 Bft) S-SW 202 0,000 mm 1,2 C 2,7 C 3,2 km/h (1 Bft) 100,00 %
17.02.2020 01:44 17,5 C 2,8 C 8,9 C 38 % 90 % 79 % 1020,3 hPa 0,0 l/m 3,2 km/h (1 Bft) S-SW 202 0,000 mm 1,3 C 2,8 C 3,2 km/h (1 Bft) 95,65 %
17.02.2020 01:43 17,6 C 2,8 C 8,9 C 38 % 90 % 79 % 1020,3 hPa 0,0 l/m 1,6 km/h (1 Bft) S-SW 202 0,000 mm 1,3 C 2,8 C 3,2 km/h (1 Bft) 100,00 %
17.02.2020 01:42 17,6 C 2,8 C 8,9 C 38 % 90 % 79 % 1020,1 hPa 0,0 l/m 1,6 km/h (1 Bft) S-SW 202 0,000 mm 1,3 C 2,8 C 3,2 km/h (1 Bft) 100,00 %
17.02.2020 01:41 17,5 C 2,8 C 8,9 C 38 % 90 % 79 % 1020,1 hPa 0,0 l/m 1,6 km/h (1 Bft) S-SW 202 0,000 mm 1,3 C 2,8 C 3,2 km/h (1 Bft) 100,00 %
17.02.2020 01:40 17,6 C 2,8 C 8,9 C 38 % 90 % 79 % 1020,2 hPa 0,0 l/m 3,2 km/h (1 Bft) S-SW 202 0,000 mm 1,3 C 2,8 C 3,2 km/h (1 Bft) 95,65 %
17.02.2020 01:39 17,6 C 2,8 C 8,9 C 38 % 90 % 79 % 1020,1 hPa 0,0 l/m 1,6 km/h (1 Bft) S-SW 202 0,000 mm 1,3 C 2,8 C 3,2 km/h (1 Bft) 95,65 %
17.02.2020 01:38 17,5 C 2,8 C 9,4 C 38 % 90 % 79 % 1019,9 hPa 0,0 l/m 1,6 km/h (1 Bft) S-SW 202 0,000 mm 1,3 C 2,8 C 3,2 km/h (1 Bft) 91,30 %
17.02.2020 01:37 17,6 C 2,8 C 8,9 C 38 % 90 % 79 % 1020,0 hPa 0,0 l/m 1,6 km/h (1 Bft) S-SW 202 0,000 mm 1,3 C 2,8 C 3,2 km/h (1 Bft) 95,65 %
17.02.2020 01:36 17,6 C 2,8 C 9,4 C 38 % 90 % 80 % 1020,1 hPa 0,0 l/m 1,6 km/h (1 Bft) S-SW 202 0,000 mm 1,3 C 2,8 C 3,2 km/h (1 Bft) 100,00 %
17.02.2020 01:35 17,6 C 2,9 C 8,9 C 38 % 90 % 79 % 1020,1 hPa 0,0 l/m 1,6 km/h (1 Bft) S-SW 202 0,000 mm 1,4 C 2,9 C 3,2 km/h (1 Bft) 100,00 %
17.02.2020 01:34 17,6 C 2,8 C 8,9 C 38 % 90 % 80 % 1020,1 hPa 0,0 l/m 1,6 km/h (1 Bft) S-SW 202 0,000 mm 1,3 C 2,8 C 3,2 km/h (1 Bft) 100,00 %
17.02.2020 01:33 17,6 C 2,8 C 8,9 C 38 % 90 % 80 % 1020,1 hPa 0,0 l/m 1,6 km/h (1 Bft) S-SW 202 0,000 mm 1,3 C 2,8 C 4,8 km/h (1 Bft) 100,00 %
17.02.2020 01:32 17,6 C 2,9 C 8,9 C 38 % 90 % 80 % 1020,1 hPa 0,0 l/m 1,6 km/h (1 Bft) S-SW 202 0,000 mm 1,4 C 2,9 C 3,2 km/h (1 Bft) 100,00 %
17.02.2020 01:31 17,6 C 2,9 C 8,9 C 38 % 90 % 80 % 1020,1 hPa 0,0 l/m 1,6 km/h (1 Bft) S-SW 202 0,000 mm 1,4 C 2,9 C 3,2 km/h (1 Bft) 95,65 %
17.02.2020 01:30 17,6 C 2,9 C 8,9 C 38 % 90 % 80 % 1020,1 hPa 0,0 l/m 1,6 km/h (1 Bft) S-SW 202 0,000 mm 1,4 C 2,9 C 1,6 km/h (1 Bft) 95,65 %
17.02.2020 01:29 17,6 C 2,9 C 8,9 C 38 % 89 % 80 % 1020,2 hPa 0,0 l/m 1,6 km/h (1 Bft) S-SW 202 0,000 mm 1,3 C 2,9 C 3,2 km/h (1 Bft) 100,00 %
17.02.2020 01:28 17,6 C 2,9 C 8,9 C 38 % 89 % 80 % 1020,2 hPa 0,0 l/m 3,2 km/h (1 Bft) S-SW 202 0,000 mm 1,3 C 2,9 C 4,8 km/h (1 Bft) 95,65 %
17.02.2020 01:27 17,6 C 2,9 C 8,9 C 38 % 89 % 80 % 1020,3 hPa 0,0 l/m 4,8 km/h (1 Bft) S-SW 202 0,000 mm 1,3 C 1,8 C 4,8 km/h (1 Bft) 100,00 %
17.02.2020 01:26 17,6 C 2,9 C 8,9 C 38 % 89 % 80 % 1020,3 hPa 0,0 l/m 4,8 km/h (1 Bft) S-SW 202 0,000 mm 1,3 C 1,8 C 6,4 km/h (2 Bft) 95,65 %
17.02.2020 01:25 17,6 C 3,0 C 8,9 C 38 % 89 % 80 % 1020,1 hPa 0,0 l/m 4,8 km/h (1 Bft) S-SW 202 0,000 mm 1,4 C 1,9 C 6,4 km/h (2 Bft) 95,65 %
17.02.2020 01:24 17,6 C 2,9 C 8,9 C 38 % 89 % 80 % 1020,2 hPa 0,0 l/m 4,8 km/h (1 Bft) S-SW 202 0,000 mm 1,3 C 1,8 C 6,4 km/h (2 Bft) 100,00 %
17.02.2020 01:23 17,6 C 3,0 C 8,9 C 38 % 89 % 80 % 1020,1 hPa 0,0 l/m 3,2 km/h (1 Bft) S-SW 202 0,000 mm 1,4 C 3,0 C 4,8 km/h (1 Bft) 95,65 %
17.02.2020 01:22 17,6 C 3,0 C 8,9 C 38 % 89 % 80 % 1020,1 hPa 0,0 l/m 3,2 km/h (1 Bft) S-SW 202 0,000 mm 1,4 C 3,0 C 3,2 km/h (1 Bft) 100,00 %
17.02.2020 01:21 17,6 C 3,0 C 8,9 C 38 % 89 % 80 % 1020,1 hPa 0,0 l/m 3,2 km/h (1 Bft) S-SW 202 0,000 mm 1,4 C 3,0 C 4,8 km/h (1 Bft) 100,00 %
17.02.2020 01:20 17,6 C 3,0 C 8,9 C 38 % 89 % 80 % 1020,1 hPa 0,0 l/m 3,2 km/h (1 Bft) S-SW 202 0,000 mm 1,4 C 3,0 C 4,8 km/h (1 Bft) 100,00 %
17.02.2020 01:19 17,6 C 3,1 C 9,4 C 38 % 89 % 80 % 1020,1 hPa 0,0 l/m 3,2 km/h (1 Bft) S-SW 202 0,000 mm 1,5 C 3,1 C 4,8 km/h (1 Bft) 100,00 %
17.02.2020 01:18 17,6 C 3,1 C 9,4 C 38 % 89 % 79 % 1020,0 hPa 0,0 l/m 3,2 km/h (1 Bft) S-SW 202 0,000 mm 1,5 C 3,1 C 4,8 km/h (1 Bft) 100,00 %
17.02.2020 01:17 17,6 C 3,1 C 9,4 C 38 % 89 % 79 % 1020,0 hPa 0,0 l/m 3,2 km/h (1 Bft) S-SW 202 0,000 mm 1,5 C 3,1 C 4,8 km/h (1 Bft) 100,00 %
17.02.2020 01:16 17,6 C 3,1 C 9,4 C 38 % 89 % 79 % 1019,9 hPa 0,0 l/m 0,0 km/h (0 Bft) S-SW 202 0,000 mm 1,5 C 3,1 C 1,6 km/h (1 Bft) 95,65 %
17.02.2020 01:15 17,6 C 3,1 C 9,4 C 38 % 89 % 79 % 1019,9 hPa 0,0 l/m 1,6 km/h (1 Bft) S-SW 202 0,000 mm 1,5 C 3,1 C 3,2 km/h (1 Bft) 100,00 %
17.02.2020 01:14 17,6 C 3,1 C 9,4 C 38 % 89 % 79 % 1020,0 hPa 0,0 l/m 1,6 km/h (1 Bft) S-SW 202 0,000 mm 1,5 C 3,1 C 3,2 km/h (1 Bft) 100,00 %
17.02.2020 01:13 17,6 C 3,1 C 9,4 C 38 % 89 % 79 % 1020,1 hPa 0,0 l/m 3,2 km/h (1 Bft) S-SW 202 0,000 mm 1,5 C 3,1 C 3,2 km/h (1 Bft) 100,00 %
17.02.2020 01:12 17,6 C 3,1 C 9,4 C 38 % 89 % 79 % 1020,0 hPa 0,0 l/m 3,2 km/h (1 Bft) S-SW 202 0,000 mm 1,5 C 3,1 C 6,4 km/h (2 Bft) 100,00 %
17.02.2020 01:11 17,6 C 3,1 C 9,4 C 38 % 89 % 79 % 1020,0 hPa 0,0 l/m 1,6 km/h (1 Bft) S-SW 202 0,000 mm 1,5 C 3,1 C 3,2 km/h (1 Bft) 100,00 %
17.02.2020 01:10 17,6 C 3,1 C 9,4 C 38 % 89 % 79 % 1020,0 hPa 0,0 l/m 1,6 km/h (1 Bft) S-SW 202 0,000 mm 1,5 C 3,1 C 3,2 km/h (1 Bft) 95,65 %
17.02.2020 01:09 17,6 C 3,2 C 9,4 C 38 % 89 % 79 % 1020,0 hPa 0,0 l/m 1,6 km/h (1 Bft) S-SW 202 0,000 mm 1,6 C 3,2 C 3,2 km/h (1 Bft) 95,65 %
17.02.2020 01:08 17,6 C 3,1 C 9,4 C 38 % 89 % 79 % 1020,0 hPa 0,0 l/m 1,6 km/h (1 Bft) S-SW 202 0,000 mm 1,5 C 3,1 C 4,8 km/h (1 Bft) 100,00 %
17.02.2020 01:07 17,6 C 3,2 C 9,4 C 38 % 89 % 79 % 1020,0 hPa 0,0 l/m 3,2 km/h (1 Bft) S-SW 202 0,000 mm 1,6 C 3,2 C 4,8 km/h (1 Bft) 95,65 %
17.02.2020 01:06 17,6 C 3,2 C 9,4 C 38 % 89 % 79 % 1020,0 hPa 0,0 l/m 1,6 km/h (1 Bft) S-SW 202 0,000 mm 1,6 C 3,2 C 4,8 km/h (1 Bft) 100,00 %
17.02.2020 01:05 17,6 C 3,2 C 9,4 C 38 % 89 % 79 % 1019,8 hPa 0,0 l/m 1,6 km/h (1 Bft) S-SW 202 0,000 mm 1,6 C 3,2 C 3,2 km/h (1 Bft) 95,65 %
17.02.2020 01:04 17,6 C 3,2 C 9,4 C 38 % 89 % 79 % 1019,7 hPa 0,0 l/m 1,6 km/h (1 Bft) S-SW 202 0,000 mm 1,6 C 3,2 C 3,2 km/h (1 Bft) 100,00 %
17.02.2020 01:03 17,6 C 3,2 C 9,4 C 38 % 89 % 79 % 1019,8 hPa 0,0 l/m 1,6 km/h (1 Bft) S-SW 202 0,000 mm 1,6 C 3,2 C 3,2 km/h (1 Bft) 100,00 %
17.02.2020 01:02 17,6 C 3,2 C 9,4 C 38 % 89 % 79 % 1019,9 hPa 0,0 l/m 1,6 km/h (1 Bft) S-SW 202 0,000 mm 1,6 C 3,2 C 3,2 km/h (1 Bft) 95,65 %
17.02.2020 01:01 17,6 C 3,2 C 9,4 C 38 % 89 % 79 % 1020,0 hPa 0,0 l/m 3,2 km/h (1 Bft) S-SW 202 0,000 mm 1,6 C 3,2 C 4,8 km/h (1 Bft) 95,65 %
17.02.2020 01:00 17,6 C 3,3 C 9,4 C 38 % 89 % 79 % 1020,0 hPa 0,0 l/m 3,2 km/h (1 Bft) S-SW 202 0,000 mm 1,7 C 3,3 C 3,2 km/h (1 Bft) 91,30 %
17.02.2020 00:59 17,6 C 3,3 C 9,4 C 38 % 89 % 79 % 1019,8 hPa 0,0 l/m 3,2 km/h (1 Bft) S-SW 202 0,000 mm 1,7 C 3,3 C 4,8 km/h (1 Bft) 95,65 %
17.02.2020 00:58 17,6 C 3,3 C 9,4 C 38 % 89 % 79 % 1019,8 hPa 0,0 l/m 3,2 km/h (1 Bft) S-SW 202 0,000 mm 1,7 C 3,3 C 4,8 km/h (1 Bft) 95,65 %
17.02.2020 00:57 17,6 C 3,3 C 9,4 C 38 % 89 % 79 % 1019,7 hPa 0,0 l/m 3,2 km/h (1 Bft) S-SW 202 0,000 mm 1,7 C 3,3 C 4,8 km/h (1 Bft) 100,00 %
17.02.2020 00:56 17,6 C 3,3 C 9,4 C 38 % 89 % 79 % 1019,7 hPa 0,0 l/m 3,2 km/h (1 Bft) S-SW 202 0,000 mm 1,7 C 3,3 C 4,8 km/h (1 Bft) 95,65 %
17.02.2020 00:55 17,6 C 3,3 C 9,4 C 38 % 89 % 79 % 1019,7 hPa 0,0 l/m 3,2 km/h (1 Bft) S-SW 202 0,000 mm 1,7 C 3,3 C 3,2 km/h (1 Bft) 95,65 %
17.02.2020 00:54 17,6 C 3,4 C 9,4 C 38 % 89 % 80 % 1019,8 hPa 0,0 l/m 1,6 km/h (1 Bft) S-SW 202 0,000 mm 1,8 C 3,4 C 3,2 km/h (1 Bft) 91,30 %
17.02.2020 00:53 17,6 C 3,4 C 9,4 C 38 % 89 % 80 % 1019,7 hPa 0,0 l/m 1,6 km/h (1 Bft) S-SW 202 0,000 mm 1,8 C 3,4 C 1,6 km/h (1 Bft) 95,65 %
17.02.2020 00:52 17,6 C 3,4 C 9,4 C 38 % 89 % 80 % 1019,7 hPa 0,0 l/m 0,0 km/h (0 Bft) N 0 0,000 mm 1,8 C 3,4 C 0,0 km/h (0 Bft) 100,00 %
17.02.2020 00:51 17,6 C 3,4 C 9,4 C 38 % 89 % 80 % 1019,7 hPa 0,0 l/m 0,0 km/h (0 Bft) N 0 0,000 mm 1,8 C 3,4 C 0,0 km/h (0 Bft) 91,30 %
17.02.2020 00:50 17,6 C 3,4 C 9,4 C 38 % 89 % 80 % 1019,6 hPa 0,0 l/m 0,0 km/h (0 Bft) N 0 0,000 mm 1,8 C 3,4 C 0,0 km/h (0 Bft) 95,65 %
17.02.2020 00:49 17,6 C 3,4 C 9,4 C 38 % 89 % 80 % 1019,6 hPa 0,0 l/m 0,0 km/h (0 Bft) S-SW 202 0,000 mm 1,8 C 3,4 C 1,6 km/h (1 Bft) 95,65 %
17.02.2020 00:48 17,7 C 3,4 C 9,4 C 38 % 89 % 80 % 1019,6 hPa 0,0 l/m 1,6 km/h (1 Bft) S-SW 202 0,000 mm 1,8 C 3,4 C 1,6 km/h (1 Bft) 91,30 %
17.02.2020 00:47 17,7 C 3,4 C 9,4 C 38 % 89 % 81 % 1019,7 hPa 0,0 l/m 1,6 km/h (1 Bft) S-SW 202 0,000 mm 1,8 C 3,4 C 3,2 km/h (1 Bft) 95,65 %
17.02.2020 00:46 17,6 C 3,4 C 9,4 C 38 % 89 % 80 % 1019,5 hPa 0,0 l/m 0,0 km/h (0 Bft) S-SW 202 0,000 mm 1,8 C 3,4 C 1,6 km/h (1 Bft) 91,30 %
17.02.2020 00:45 17,6 C 3,4 C 9,4 C 38 % 89 % 81 % 1019,3 hPa 0,0 l/m 0,0 km/h (0 Bft) S-SW 202 0,000 mm 1,8 C 3,4 C 1,6 km/h (1 Bft) 95,65 %
17.02.2020 00:44 17,7 C 3,4 C 9,4 C 38 % 89 % 81 % 1019,4 hPa 0,0 l/m 1,6 km/h (1 Bft) S-SW 202 0,000 mm 1,8 C 3,4 C 3,2 km/h (1 Bft) 91,30 %
17.02.2020 00:43 17,7 C 3,4 C 9,4 C 38 % 89 % 81 % 1019,3 hPa 0,0 l/m 1,6 km/h (1 Bft) S-SW 202 0,000 mm 1,8 C 3,4 C 3,2 km/h (1 Bft) 100,00 %
17.02.2020 00:42 17,7 C 3,5 C 9,4 C 38 % 89 % 81 % 1019,4 hPa 0,0 l/m 3,2 km/h (1 Bft) S-SW 202 0,000 mm 1,9 C 3,5 C 4,8 km/h (1 Bft) 86,96 %
17.02.2020 00:41 17,7 C 3,5 C 9,4 C 38 % 89 % 81 % 1019,6 hPa 0,0 l/m 3,2 km/h (1 Bft) S-SW 202 0,000 mm 1,9 C 3,5 C 3,2 km/h (1 Bft) 95,65 %
17.02.2020 00:40 17,7 C 3,5 C 9,4 C 38 % 89 % 81 % 1019,6 hPa 0,0 l/m 1,6 km/h (1 Bft) S-SW 202 0,000 mm 1,9 C 3,5 C 3,2 km/h (1 Bft) 91,30 %
17.02.2020 00:39 17,7 C 3,6 C 9,4 C 38 % 89 % 81 % 1019,7 hPa 0,0 l/m 0,0 km/h (0 Bft) S-SW 202 0,000 mm 2,0 C 3,6 C 1,6 km/h (1 Bft) 100,00 %
17.02.2020 00:38 17,7 C 3,6 C 9,4 C 38 % 89 % 81 % 1019,9 hPa 0,0 l/m 1,6 km/h (1 Bft) S-SW 202 0,000 mm 2,0 C 3,6 C 3,2 km/h (1 Bft) 91,30 %
17.02.2020 00:37 17,7 C 3,5 C 9,4 C 38 % 89 % 81 % 1019,9 hPa 0,0 l/m 3,2 km/h (1 Bft) S-SW 202 0,000 mm 1,9 C 3,5 C 3,2 km/h (1 Bft) 100,00 %
17.02.2020 00:36 17,7 C 3,6 C 9,4 C 38 % 89 % 80 % 1020,0 hPa 0,0 l/m 3,2 km/h (1 Bft) S-SW 202 0,000 mm 2,0 C 3,6 C 4,8 km/h (1 Bft) 95,65 %
17.02.2020 00:35 17,7 C 3,6 C 9,4 C 38 % 89 % 81 % 1019,9 hPa 0,0 l/m 3,2 km/h (1 Bft) S-SW 202 0,000 mm 2,0 C 3,6 C 3,2 km/h (1 Bft) 91,30 %
17.02.2020 00:34 17,7 C 3,6 C 9,4 C 38 % 89 % 80 % 1019,9 hPa 0,0 l/m 3,2 km/h (1 Bft) S-SW 202 0,000 mm 2,0 C 3,6 C 3,2 km/h (1 Bft) 100,00 %
17.02.2020 00:33 17,7 C 3,6 C 9,4 C 38 % 88 % 80 % 1019,9 hPa 0,0 l/m 3,2 km/h (1 Bft) S-SW 202 0,000 mm 1,8 C 3,6 C 3,2 km/h (1 Bft) 86,96 %
17.02.2020 00:32 17,7 C 3,6 C 9,4 C 38 % 88 % 80 % 1019,9 hPa 0,0 l/m 3,2 km/h (1 Bft) S-SW 202 0,000 mm 1,8 C 3,6 C 4,8 km/h (1 Bft) 95,65 %
17.02.2020 00:31 17,7 C 3,6 C 9,4 C 38 % 88 % 80 % 1019,8 hPa 0,0 l/m 3,2 km/h (1 Bft) S-SW 202 0,000 mm 1,8 C 3,6 C 4,8 km/h (1 Bft) 91,30 %
17.02.2020 00:30 17,7 C 3,6 C 9,4 C 38 % 88 % 80 % 1019,8 hPa 0,0 l/m 3,2 km/h (1 Bft) S-SW 202 0,000 mm 1,8 C 3,6 C 4,8 km/h (1 Bft) 100,00 %
17.02.2020 00:29 17,7 C 3,7 C 9,4 C 38 % 88 % 80 % 1019,7 hPa 0,0 l/m 3,2 km/h (1 Bft) S-SW 202 0,000 mm 1,9 C 3,7 C 4,8 km/h (1 Bft) 86,96 %
17.02.2020 00:28 17,7 C 3,7 C 9,4 C 38 % 88 % 80 % 1019,6 hPa 0,0 l/m 1,6 km/h (1 Bft) S-SW 202 0,000 mm 1,9 C 3,7 C 3,2 km/h (1 Bft) 100,00 %
17.02.2020 00:27 17,7 C 3,7 C 9,4 C 38 % 88 % 80 % 1019,6 hPa 0,0 l/m 3,2 km/h (1 Bft) S-SW 202 0,000 mm 1,9 C 3,7 C 4,8 km/h (1 Bft) 91,30 %
17.02.2020 00:26 17,7 C 3,7 C 9,4 C 38 % 88 % 79 % 1019,5 hPa 0,0 l/m 1,6 km/h (1 Bft) S-SW 202 0,000 mm 1,9 C 3,7 C 3,2 km/h (1 Bft) 95,65 %
17.02.2020 00:25 17,7 C 3,7 C 9,4 C 38 % 88 % 79 % 1019,5 hPa 0,0 l/m 0,0 km/h (0 Bft) N 0 0,000 mm 1,9 C 3,7 C 0,0 km/h (0 Bft) 95,65 %
17.02.2020 00:24 17,7 C 3,7 C 9,4 C 38 % 88 % 79 % 1019,4 hPa 0,0 l/m 0,0 km/h (0 Bft) N 0 0,000 mm 1,9 C 3,7 C 0,0 km/h (0 Bft) 95,65 %
17.02.2020 00:23 17,7 C 3,8 C 9,4 C 38 % 88 % 79 % 1019,4 hPa 0,0 l/m 0,0 km/h (0 Bft) N 0 0,000 mm 2,0 C 3,8 C 0,0 km/h (0 Bft) 95,65 %
17.02.2020 00:22 17,7 C 3,8 C 9,4 C 38 % 88 % 79 % 1019,4 hPa 0,0 l/m 0,0 km/h (0 Bft) N 0 0,000 mm 2,0 C 3,8 C 0,0 km/h (0 Bft) 95,65 %
17.02.2020 00:21 17,7 C 3,8 C 9,4 C 38 % 88 % 79 % 1019,5 hPa 0,0 l/m 0,0 km/h (0 Bft) N 0 0,000 mm 2,0 C 3,8 C 0,0 km/h (0 Bft) 95,65 %
17.02.2020 00:20 17,7 C 3,8 C 9,4 C 38 % 88 % 79 % 1019,5 hPa 0,0 l/m 0,0 km/h (0 Bft) N 0 0,000 mm 2,0 C 3,8 C 0,0 km/h (0 Bft) 95,65 %
17.02.2020 00:19 17,7 C 3,9 C 9,4 C 38 % 88 % 79 % 1019,5 hPa 0,0 l/m 0,0 km/h (0 Bft) N 0 0,000 mm 2,1 C 3,9 C 0,0 km/h (0 Bft) 95,65 %
17.02.2020 00:18 17,7 C 3,9 C 9,4 C 38 % 88 % 79 % 1019,4 hPa 0,0 l/m 0,0 km/h (0 Bft) N 0 0,000 mm 2,1 C 3,9 C 0,0 km/h (0 Bft) 95,65 %
17.02.2020 00:17 17,7 C 3,9 C 9,4 C 38 % 88 % 79 % 1019,4 hPa 0,0 l/m 0,0 km/h (0 Bft) N 0 0,000 mm 2,1 C 3,9 C 0,0 km/h (0 Bft) 100,00 %
17.02.2020 00:16 17,7 C 3,9 C 9,4 C 38 % 88 % 79 % 1019,5 hPa 0,0 l/m 0,0 km/h (0 Bft) N 0 0,000 mm 2,1 C 3,9 C 0,0 km/h (0 Bft) 95,65 %
17.02.2020 00:15 17,7 C 3,9 C 9,4 C 38 % 88 % 79 % 1019,4 hPa 0,0 l/m 0,0 km/h (0 Bft) N 0 0,000 mm 2,1 C 3,9 C 0,0 km/h (0 Bft) 100,00 %
17.02.2020 00:14 17,7 C 3,9 C 9,4 C 38 % 88 % 79 % 1019,5 hPa 0,0 l/m 0,0 km/h (0 Bft) N 0 0,000 mm 2,1 C 3,9 C 0,0 km/h (0 Bft) 95,65 %
17.02.2020 00:13 17,7 C 3,9 C 9,4 C 38 % 88 % 79 % 1019,4 hPa 0,0 l/m 0,0 km/h (0 Bft) S-SW 202 0,000 mm 2,1 C 3,9 C 1,6 km/h (1 Bft) 95,65 %
17.02.2020 00:12 17,7 C 3,9 C 9,4 C 38 % 88 % 79 % 1019,4 hPa 0,0 l/m 1,6 km/h (1 Bft) S-SW 202 0,000 mm 2,1 C 3,9 C 3,2 km/h (1 Bft) 86,96 %
17.02.2020 00:11 17,7 C 3,9 C 9,4 C 38 % 88 % 79 % 1019,5 hPa 0,0 l/m 3,2 km/h (1 Bft) S-SW 202 0,000 mm 2,1 C 3,9 C 4,8 km/h (1 Bft) 100,00 %
17.02.2020 00:10 17,7 C 3,9 C 9,4 C 38 % 88 % 79 % 1019,5 hPa 0,0 l/m 3,2 km/h (1 Bft) S-SW 202 0,000 mm 2,1 C 3,9 C 4,8 km/h (1 Bft) 95,65 %
17.02.2020 00:09 17,7 C 3,9 C 9,4 C 38 % 88 % 79 % 1019,6 hPa 0,0 l/m 4,8 km/h (1 Bft) S-SW 202 0,000 mm 2,1 C 2,9 C 8,0 km/h (2 Bft) 100,00 %
17.02.2020 00:08 17,7 C 3,9 C 9,4 C 38 % 89 % 79 % 1019,5 hPa 0,0 l/m 4,8 km/h (1 Bft) SW 225 0,000 mm 2,3 C 2,9 C 8,0 km/h (2 Bft) 95,65 %
17.02.2020 00:07 17,7 C 3,9 C 9,4 C 38 % 89 % 79 % 1019,5 hPa 0,0 l/m 4,8 km/h (1 Bft) SW 225 0,000 mm 2,3 C 2,9 C 4,8 km/h (1 Bft) 100,00 %
17.02.2020 00:06 17,8 C 3,9 C 9,4 C 38 % 89 % 79 % 1019,4 hPa 0,0 l/m 1,6 km/h (1 Bft) SW 225 0,000 mm 2,3 C 3,9 C 3,2 km/h (1 Bft) 95,65 %
17.02.2020 00:05 17,7 C 3,9 C 9,4 C 38 % 89 % 79 % 1019,4 hPa 0,0 l/m 1,6 km/h (1 Bft) SW 225 0,000 mm 2,3 C 3,9 C 3,2 km/h (1 Bft) 95,65 %
17.02.2020 00:04 17,7 C 3,9 C 9,4 C 38 % 89 % 79 % 1019,3 hPa 0,0 l/m 3,2 km/h (1 Bft) SW 225 0,000 mm 2,3 C 3,9 C 4,8 km/h (1 Bft) 95,65 %
17.02.2020 00:03 17,7 C 3,9 C 9,4 C 38 % 89 % 80 % 1019,4 hPa 0,0 l/m 1,6 km/h (1 Bft) SW 225 0,000 mm 2,3 C 3,9 C 3,2 km/h (1 Bft) 43,48 %
17.02.2020 00:02 17,7 C 3,8 C 9,4 C 38 % 89 % 80 % 1019,4 hPa 0,0 l/m 0,0 km/h (0 Bft) N 0 0,000 mm 2,2 C 3,8 C 0,0 km/h (0 Bft) 0,00 %
17.02.2020 00:01 17,7 C 3,8 C 9,4 C 38 % 89 % 80 % 1019,3 hPa 0,0 l/m 3,2 km/h (1 Bft) SW 225 0,000 mm 2,2 C 3,8 C 3,2 km/h (1 Bft) 8,70 %
17.02.2020 00:00 17,7 C 3,8 C 9,4 C 38 % 89 % 80 % 1019,3 hPa 0,0 l/m 1,6 km/h (1 Bft) SW 225 0,000 mm 2,2 C 3,8 C 4,8 km/h (1 Bft) 95,65 %
_ Min-Zeit 02:04 04:10 02:51 03:04 00:09 01:45 00:00 - 00:02 - - - 03:48 04:34 00:02 00:02
Minimum _ 17,4 C 0,5 C 8,3 C 37 % 88 % 78 % 1019,3 hPa - 0,0 km/h (0 Bft) - - - -0,7 C -0,7 C 0,0 km/h (0 Bft) 0,00 %
_ Max-Zeit 04:35 00:03 00:00 00:00 04:33 00:35 04:18 00:00 00:07 - - 00:00 00:03 00:03 00:08 00:07
Maximum _ 18,4 C 3,9 C 9,4 C 38 % 93 % 81 % 1020,9 hPa 0,0 l/m 4,8 km/h
SW (1 Bft)
- - 0,000 mm 2,3 C 3,9 C 8,0 km/h
S-SW (2 Bft)
100,00 %
Durchschnitt _ 17,8 C 2,0 C 8,8 C 38 % 90 % 79 % 1020,2 hPa #0,0 l/m 1,4 km/h (1 Bft) S-SW - #0,000 mm 0,6 C 2,0 C 2,4 km/h (1 Bft) 96,06 %